TIANTONG-1 2

Last updated on Thu Oct 30 2025 00:02:51 GMT+0000 (Coordinated Universal Time)

1 46916U 20082A 25302.54160140 -.00000347 00000+0 00000+0 0 9994 2 46916 1.1998 305.3050 0003091 333.2992 79.4390 1.00269342 18341
UTC large
Height (km)
Speed (km/s)
/
Latitude / Longitude
Inclination (degrees)
Orbital Period (minutes)
Azimuth
Elevation
Range (km)
Doppler Factor

Next 0 passes for location: London (51.5072 / 0.1276)

Sorry there are no passes over London.